www.pogodaiklimat.ru

Погода и климат >> Архив погоды >> Индия >> Balasore


ПОГОДА в Balasore

  • Прогноз погоды в Balasore
  • Монитор погоды в Balasore
  • Климат города

АРХИВ ПОГОДЫ в Balasore

Время (UTC), дата Ветер
(напр.,м/с)
 
Видим.   Явления Облачность Т
(С)
Тd
(С)
f
(%)
Тe
(С)
Тes
(С)
Комфортность P
(гПа)
Po
(гПа)
Тmin
(С)
Tmax
(С)
R
(мм)
R24
(мм)
S
(см)
18 18.05 ЮЗ 2 2000 м в посл. час гроза {дождь} 10/8 540 м
[Sc diur, vesp As op]
+25.0 +22.6 87 +33 +33 очень
душно
1002.6 1003.0 12
21 18.05 ЮЗ 1 2000 м 10/8 540 м
[Sc diur, vesp As op]
+24.4 +22.8 91 +32 +32 очень
душно
1001.6 1002.0 12
00 19.05 ЮЗ 1 4000 м 8/5 600 м
[Sc diur, vesp Ac trans]
+25.0 +22.3 85 +33 +33 очень
душно
1003.1 1003.0 12
03 19.05 ЮЗ 1 4000 м 3/0
[Ac trans]
+29.2 +22.0 65 +38 +48 очень
душно
1004.5 1005.0 +20.9 12
06 19.05 ЮЗ 1 4000 м 3/0
[Ac trans]
+33.4 +22.3 52 +42 +64 опасность
перегрева
1004.0 1004.0
09 19.05 штиль 0 4000 м 4/0
[Ci fib]
+34.4 +23.2 52 +45 +61 опасность
перегрева
1001.2 1001.0
12 19.05 ЮЗ 1 4000 м 5/4 600 м
[Sc Ci fib]
+32.2 +26.1 70 +48 +48 опасность
перегрева
1001.0 1001.0 +34.6
15 19.05 штиль 0 4000 м 4/0
[Ci fib]
+30.0 +26.7 83 +47 +47 опасность
перегрева
1002.7 1003.0
18 19.05 ЮЗ 1 4000 м 3/1 600 м
[Sc Ci fib]
+29.0 +25.6 82 +43 +43 опасность
перегрева
1003.7 1004.0
21 19.05 штиль 0 4000 м 6/3 600 м
[Sc Ac trans Ci fib]
+28.4 +25.6 85 +42 +42 опасность
перегрева
1002.8 1003.0
00 20.05 ЮЗ 1 4000 м 4/1 600 м
[Sc Ac trans Ci fib]
+28.0 +24.6 82 +40 +40 очень
душно
1003.5 1004.0
03 20.05 ЮЗ 2 4000 м 6/4 600 м
[Sc diur, vesp Ac trans]
+31.4 +26.1 74 +47 +53 опасность
перегрева
1004.4 1004.0 +25.6
06 20.05 ЮЗ 1 4000 м 9/5 600 м
[Sc diur, vesp Ac trans]
+34.4 +27.3 67 +53 +60 опасность
перегрева
1004.3 1004.0
09 20.05 ЮЗ 1 4000 м 8/5 600 м
[Sc diur, vesp Ac trans]
+34.0 +26.5 65 +51 +56 опасность
перегрева
1001.5 1002.0
12 20.05 штиль 0 4000 м 8/5 600 м
[Sc diur, vesp Ac trans]
+29.0 +21.6 64 +37 +37 очень
душно
1000.8 1001.0 +35.7
15 20.05 штиль 0 4000 м 8/6 600 м
[Sc diur, vesp Ac trans]
+28.6 +22.4 69 +37 +37 очень
душно
1005.8 1006.0
18 20.05 ЮЗ 1 4000 м 4/4 540 м
[Sc]
+27.6 +22.3 73 +36 +36 очень
душно
1005.0 1005.0
21 20.05 ЮЗ 1 4000 м 3/3 540 м
[Sc]
+26.6 +21.2 72 +34 +34 очень
душно
1004.2 1004.0
00 21.05 ЮЗ 1 4000 м 4/0
[Ac trans]
+25.6 +20.7 74 +32 +32 очень
душно
1004.3 1004.0
03 21.05 ЮЗ 1 4000 м 5/4 600 м
[Sc diur, vesp Ac trans]
+31.0 +20.5 54 +38 +45 очень
душно
1005.5 1006.0 +23.1
06 21.05 ЮЗ 2 4000 м 5/5 600 м
[Sc diur, vesp]
+34.2 +23.9 55 +46 +58 опасность
перегрева
1005.1 1005.0
09 21.05 ЮЗ 1 4000 м 9/3 600 м
[Sc Ac trans Ci sp]
+35.2 +25.4 57 +50 +56 опасность
перегрева
1002.5 1003.0
12 21.05 штиль 0 4000 м 9/4 600 м
[Sc diur, vesp Ac trans Ci sp]
+32.6 +27.1 73 +51 +51 опасность
перегрева
1002.3 1002.0 +35.7
15 21.05 ЮЗ 2 4000 м 6/4 600 м
[Sc diur, vesp Ac trans Ci fib]
+30.6 +24.3 69 +43 +43 опасность
перегрева
1003.3 1003.0
18 21.05 ЮЗ 1 4000 м 6/4 600 м
[Sc Ac trans]
+29.0 +23.8 74 +40 +40 очень
душно
1004.1 1004.0
21 21.05 штиль 0 4000 м 5/4 600 м
[Sc Ac trans]
+28.4 +23.5 75 +39 +39 очень
душно
1003.2 1003.0
00 22.05 ЮЗ 2 4000 м 8/5 600 м
[Sc diur, vesp Ac trans]
+27.8 +25.2 86 +40 +41 очень
душно
1003.6 1004.0
03 22.05 ЮЗ 2 4000 м 3/1 600 м
[Sc Ac trans]
+31.6 +26.0 72 +47 +57 опасность
перегрева
1005.4 1005.0 +25.6
06 22.05 Ю 2 4000 м 5/4 600 м
[Sc diur, vesp Ac trans]
+35.2 +27.3 64 +54 +67 опасность
перегрева
1004.5 1005.0
09 22.05 ЮЗ 2 4000 м 5/4 600 м
[Sc diur, vesp Ac trans]
+35.0 +27.3 64 +53 +61 опасность
перегрева
1001.8 1002.0
12 22.05 ЮЗ 2 4000 м 6/4 600 м
[Sc diur, vesp Ac trans]
+31.2 +26.8 78 +49 +49 опасность
перегрева
1001.7 1002.0 +36.4
15 22.05 штиль 0 4000 м зарница 9/6 540 м
[Cb calv Ac trans]
+29.6 +23.5 70 +40 +40 очень
душно
1004.3 1004.0
18 22.05 ЮЗ 1 4000 м 9/6 600 м
[Sc diur, vesp Ac trans]
+26.6 +21.2 72 +34 +34 очень
душно
1005.6 1006.0
21 22.05 штиль 0 2000 м гроза, ливневой дождь 10/8 540 м
[Cb calv As op]
+24.6 +22.8 90 +33 +33 очень
душно
1005.6 1006.0 6
00 23.05 СЗ 1 2000 м гроза, ливневой дождь 10/8 540 м
[Cb calv As op]
+25.0 +22.0 83 +32 +32 очень
душно
1005.5 1006.0 43
03 23.05 штиль 0 2000 м {гроза, дождь} 9/6 540 м
[Cb cap As op]
+25.4 +23.9 91 +35 +37 очень
душно
1006.7 1007.0 +21.1 46
06 23.05 ЮЗ 1 4000 м 8/5 540 м
[Sc Ac trans]
+29.0 +24.4 76 +41 +49 опасность
перегрева
1006.1 1006.0
09 23.05 ЮЗ 2 4000 м 10/6 540 м
[Sc diur, vesp Ac trans]
+27.6 +22.3 73 +36 +38 очень
душно
1003.3 1003.0
12 23.05 штиль 0 4000 м 9/6 540 м
[Sc diur, vesp Ac trans]
+27.0 +22.3 75 +35 +35 очень
душно
1002.8 1003.0 +29.0
15 23.05 штиль 0 4000 м 8/5 600 м
[Sc diur, vesp Ac trans]
+26.4 +22.9 81 +35 +35 очень
душно
1003.7 1004.0
18 23.05 ЮЗ 1 4000 м 6/3 600 м
[Sc Ac trans]
+26.0 +23.1 84 +35 +35 очень
душно
1003.7 1004.0
21 23.05 штиль 0 4000 м 6/3 600 м
[Sc Ac trans]
+25.2 +22.5 85 +33 +33 очень
душно
1002.9 1003.0
00 24.05 Ю 1 4000 м 8/4 540 м
[Sc diur, vesp Ac trans]
+26.6 +24.6 89 +38 +38 очень
душно
1003.4 1003.0
03 24.05 ЮЗ 2 4000 м 8/4 600 м
[Sc Ac trans]
+30.6 +26.4 78 +47 +51 опасность
перегрева
1004.5 1005.0 +25.6
06 24.05 ЮЗ 2 4000 м 8/5 600 м
[Sc diur, vesp Ac trans]
+34.0 +26.5 65 +51 +58 опасность
перегрева
1003.7 1004.0
09 24.05 ЮЗ 2 4000 м 5/4 600 м
[Sc diur, vesp Ac trans]
+34.6 +25.4 59 +49 +57 опасность
перегрева
1001.1 1001.0
12 24.05 ЮЗ 2 4000 м 5/3 600 м
[Sc Ci fib]
+31.8 +26.2 72 +48 +48 опасность
перегрева
1001.0 1001.0 +35.0
15 24.05 ЮЗ 2 4000 м 5/3 600 м
[Sc Ci fib]
+29.8 +25.3 77 +44 +44 опасность
перегрева
1003.3 1003.0
18 24.05 ЮЗ 1 4000 м 3/3 540 м
[Sc]
+28.4 +25.0 82 +41 +41 опасность
перегрева
1002.6 1003.0
21 24.05 ЮЗ 1 4000 м 3/3 540 м
[Sc]
+27.0 +24.4 86 +38 +38 очень
душно
1002.2 1002.0
00 25.05 ЮЗ 1 4000 м 9/6 540 м
[Sc Ac trans]
+28.0 +25.2 85 +41 +41 опасность
перегрева
1002.1 1002.0
03 25.05 ЮЗ 2 4000 м 9/6 540 м
[Sc diur, vesp Ac trans]
+30.4 +25.6 76 +45 +48 опасность
перегрева
1004.6 1005.0 +26.2
06 25.05 ЮЗ 1 4000 м 9/5 540 м
[Sc diur, vesp Ac trans]
+32.6 +26.2 69 +49 +55 опасность
перегрева
1004.1 1004.0
09 25.05 ЮЗ 1 4000 м 8/6 540 м
[Sc diur, vesp Ac trans]
+34.2 +27.1 67 +53 +57 опасность
перегрева
1001.9 1002.0
12 25.05 ЮЗ 1 4000 м 3/1 600 м
[Sc Ac trans]
+32.0 +26.7 74 +49 +50 опасность
перегрева
1001.4 1001.0 +34.7

 

Местоположение метеостанции Balasore (Orissa, Индия): широта 21.52 долгота 86.93 высота над уровнем моря 20 м.

В архиве по умолчанию представлена погода в Balasore за последнюю неделю. Архивные данные за месяц целиком и за предыдущие месяцы, начиная с января 2011 года, Вы можете получить, выбрав интересующий диапазон дат из раскрывающегося списка и нажав кнопку "Ввод!".


*Определитесь, кто Вы:
робот инопланетянин человек

Внимание! Время в таблицах - всемирное. Для получения местного времени необходимо прибавить поправку, которая в Balasore равна 5.5 ч.

Смотрите также архив погоды в соседних городах и на ближайших метеорологических станциях:

Погода в Baripada (Orissa, Индия) (49 км)
Погода в Digha (West Bengal, Индия) (60 км)
Погода в Chandbali (Orissa, Индия) (85 км)
Погода в Contai (West Bengal, Индия) (90 км)
Погода в Midnapore (West Bengal, Индия) (108 км)
Погода в Haldia (West Bengal, Индия) (128 км)
Погода в Paradip Port (Orissa, Индия) (138 км)
Погода в Keongjhargarh (Orissa, Индия) (146 км)
Погода в Diamond Harbour (West Bengal, Индия) (150 км)
Погода в Uluberia (West Bengal, Индия) (151 км)

Пояснения к столбцам:

Ветер - указаны скорость ветра в м/с - средняя за 10 мин, порывы в срок и между сроками (в фигурных скобках) и направление, откуда дует ветер: С - северный, СВ - северо-восточный, В - восточный, ЮВ - юго-восточный, Ю - южный, ЮЗ - юго-западный, З - западный, СЗ - северо-западный.
Видимость - горизонтальная дальность видимости в метрах или километрах. При видимости от 1 до 10 км при отсутствии осадков обычно наблюдается дымка, при ухудшении видимости до 1 км и менее - туман. В сухую погоду видимость может ухудшаться дымом, пылью или мглою.
Явления - указаны атмосферные явления, наблюдавшиеся в срок или в последний час перед сроком; фигурными скобками обозначены явления, наблюдавшиеся между сроками (за 1-3 часа до срока); квадратными скобками обозначены град или гололедные отложения с указанием их диаметра в мм.
Облачность - указаны через наклонную черту общая и нижняя облачность в баллах и высота нижней границы облаков в метрах; квадратными скобками обозначены формы облаков: Ci - перистые, Cs - перисто-слоистые, Cc - перисто-кучевые, Ac - высококучевые, As - высокослоистые, Sc - слоисто-кучевые, Ns - слоисто-дождевые, Cu - кучевые, Cb - кучево-дождевые. Подробнее классификацию облаков см. в Атласе облаков (PDF).
T - Температура воздуха - температура, измеренная на высоте 2 м над землей.
Td - Температура точки росы - температура, при понижении до которой содержащийся в воздухе водяной пар достигнет насыщения.
f - Относительная влажность воздуха - влажноcть воздуха, измеренная на высоте 2 м над землей.
Te - Эффективная температура - температура, которую ощущает одетый по сезону человек в тени. Характеристика душности погоды. При расчете учитывается влияние влажности воздуха и скорости ветра на теплоощущения человека.
Tes - Эффективная температура на солнце - температура, которую ощущает человек, с поправкой на солнечный нагрев. Характеристика знойности погоды. Зависит от высоты солнца над горизонтом, облачности и скорости ветра. Ночью, в пасмурную погоду, а также при ветре 12 м/с и более поправка равна нулю.
P - Атмосферное давление - приведенное к уровню моря атмосферное давление.
Po - Атмосферное давление - измеренное на уровне метеостанции атмосферное давление.
Tmin - Минимальная температура - минимум температуры воздуха на высоте 2 м над землей.
Tmax - Максимальная температура - максимум температуры воздуха на высоте 2 м над землей.
R - Количество осадков - Количество выпавших осадков за период времени, мм. При наведении курсора мыши на число - период времени, за который выпало указанное количество осадков.
R24 - Количество осадков - Количество выпавших осадков за 24 часа, мм.
S - Снежный покров - Высота снежного покрова, см. При наведении курсора мыши на число - состояние снежного покрова и степень покрытия местности в баллах.